User: anonymous   Login
Location: Unspecified
(0.0000°N, 0.0000°E)
Time: 19:55:47
(UTC+00:00)
Language:

OPTUS D2 - Orbit

View from above orbital plane
View from above orbital plane
View from above satellite
View from above satellite

Ground track
Ground track

The orbit data is extracted from the following two-line orbital elements,

1 32252U 07044A   16208.22892186 -.00000198  00000-0  00000+0 0  9992
2 32252   0.0282 335.2620 0002896 154.5743  48.9104  1.00270830 32218
Epoch (UTC): 26 July 2016 05:29:38
Eccentricity: 0.0002896
inclination: 0.0282°
perigee height: 35774 km
apogee height: 35798 km
right ascension of ascending node: 335.2620°
argument of perigee: 154.5743°
revolutions per day: 1.00270830
mean anomaly at epoch: 48.9104°
orbit number at epoch: 3221

The dashed part of the orbit path shows where the satellite is in the earth's shadow,  

DLR